STARLINK-5312, 55311

Orbit data source: Space-Track

STARLINK-5312, 55311 is a payload satellite owned by SpaceX/Seattle (US) in LEO that was launched on Thu, 19 Jan 2023 UTC via an FALCON 9 launch vehicle from the Air Force Western Test Range (AFWTR). Payload-class satellites include a variety of spacecraft equipped with specific instruments for various scientific and technological missions. These include communications satellites like Starlink; space stations such as the ISS; scientific satellites like the Hubble; Earth observation satellites from companies like Planet Labs, Umbra, and HawkEye 360; GPS; miniature CubeSats for education and research; and military/defense satellites.

Loading next visibility...
Identifier
55311, 2023-010AU
Orbit
LEO
Country
Flag of USUS
Related business
Manufacturer
SpaceX/Seattle
Mission
Operational Commercial Communications
Bus & Motor
STARLINK, Unknown motor
Mass
305 kg wet, ~290 kg dry
Launch date (UTC)
2023-01-19 (3 years ago)
Launch vehicle
FALCON 9
Launch site
Air Force Western Test Range (AFWTR)
Object type
Payload
Rocket body
Debris
Shape & HBR
Box + 1 Pan, 10.1 m
Radar Cross Section
13.562 m², Large (>1 m²)

Expand to show TLE details & history
Last TLE update: 2 days ago

TLE from 2 days ago
0 STARLINK-5312
1 55311U 23010AU  26171.26017750  .00001041  00000-0  95024-4 0  9996
2 55311  69.9997 105.9479 0002812 271.0058  89.0778 14.98316669190009
Epoch: 2026-06-20T06:14Z
TLE epoch observation values (Epoch: 2026-06-20T06:14:39.335Z)
Latitude
-0.00008°
Longitude
103.80662°
Altitude
574.49 km
Speed
7.574 km/s
True Right ascension
07h 03m 47s
True Declination
0° 00' 00"
Sunlit
Object was in daylight at epoch
Visualization orbit readout
Latitude
Unknown
Longitude
Unknown
Altitude
Unknown
Speed
Unknown
Apparent Right ascension
Unknown
Apparent Declination
Unknown
Sunlit
N/A
Visualization observer readout
Local Sidereal Time
21:31:41
Azimuth
Unknown
Elevation
Unknown
Doppler factor
Unknown
Orbital elements
Apogee altitude
571.999 km
Perigee altitude
568.092 km
Semi-major axis
6,948.182 km
Eccentricity
0.00028
Inclination
69.9997°
RAAN
105.9479°
Arg. of periapsis
271.0058°
True anomaly
89.11002°
Mean anomaly
89.0778°
Eccentric anomaly
89.09391°
Mean motion
3.74745 °/min
Orbital period
96.07 mins
BSTAR
0.000095024
Loading maneuver chart data...
Computing Atmospheric mass density...
Loading historical data...
Loading historical data...
Loading historical data...
Loading historical data...
Loading historical data...
Loading historical data...
Loading historical data...

Documentation

Showing up to 5 results
|